This demonstration page uses our WeatherBlox Daily Observations layout. Learn more.

Left ArrowRight Arrow

47.50024, -111.30081

Hourly Observations for March 11, 2017

Temp ( °F °C ) Dew Point ( °F °C ) Humidity (%) Winds ( mph kmh ) Pressure ( in mb ) Visibility ( mi km ) Precip ( " mm )
12:53 am 00:53 Cloudy 12 -11.1 8 -13.3 84 84 ENE 5 7 30.51 1033 9 14 0.00 0.00
1:53 am 01:53 Cloudy 12 -11.1 9 -12.8 87 87 ESE 5 7 30.53 1034 8 13 0.00 0.03
2:06 am 02:06 Cloudy with Light Snow 12 -11.1 9 -12.8 87 87 ESE 6 9 30.59 1036 3 4 0.00 0.03
2:12 am 02:12 Cloudy with Light Snow 12 -11 9 -13 85 85 ESE 6 9 30.59 1036 1 2 0.00 0.00
2:36 am 02:36 Cloudy with Light Snow 12 -11 9 -13 85 85 E 5 7 30.59 1036 1 2 0.00 0.00
2:53 am 02:53 Cloudy with Light Snow 12 -11.1 8 -13.3 84 84 E 6 9 30.52 1034 2 3 0.00 0.03
3:07 am 03:07 Cloudy with Light Snow 12 -11.1 9 -12.8 87 87 E 7 11 30.59 1036 3 5 0.00 0.03
3:22 am 03:22 Cloudy with Mist and Fog 12 -11 9 -13 85 85 E 7 11 30.59 1036 6 10 0.00 0.00
3:53 am 03:53 Cloudy with Mist and Fog 12 -11.1 8 -13.3 84 84 E 7 11 30.50 1033 5 8 0.00 0.03
4:53 am 04:53 Cloudy with Mist and Fog 12 -11.1 9 -12.8 87 87 E 9 15 30.50 1033 5 8 0.00 0.00
5:36 am 05:36 Cloudy with Mist and Fog 11 -11.7 9 -12.8 92 92 E 9 15 30.59 1036 5 8 0.00 0.00
5:53 am 05:53 Cloudy with Mist and Fog 11 -11.7 9 -12.8 92 92 E 10 17 30.50 1033 6 10 0.00 0.00
6:16 am 06:16 Cloudy with Mist and Fog 11 -11.7 9 -12.8 92 92 E 8 13 30.56 1035 6 10 0.00 0.00
6:53 am 06:53 Cloudy with Mist and Fog 11 -11.7 9 -12.8 92 92 E 7 11 30.50 1033 4 6 0.00 0.00
7:53 am 07:53 Cloudy with Mist and Fog 12 -11.1 10 -12.2 92 92 E 7 11 30.50 1033 5 8 0.00 0.00
8:53 am 08:53 Cloudy 13 -10.6 10 -12.2 88 88 E 7 11 30.47 1032 7 11 0.00 0.00
9:18 am 09:18 Mostly Cloudy 12 -11 10 -12 92 92 ENE 7 11 30.50 1033 8 13 0.00 0.00
9:27 am 09:27 Mostly Cloudy 13 -10.6 10 -12.2 88 88 ENE 7 11 30.50 1033 7 11 0.00 0.00
9:53 am 09:53 Mostly Cloudy 14 -10 10 -12.2 84 84 ENE 7 11 30.44 1031 8 13 0.00 0.00
10:16 am 10:16 Partly Cloudy 14 -10 11 -11.7 88 88 E 6 9 30.48 1032 10 16 0.00 0.00
10:53 am 10:53 Mostly Sunny 17 -8.3 12 -11.1 80 80 ENE 6 9 30.42 1030 10 16 0.00 0.00
11:53 am 11:53 Partly Cloudy 18 -7.8 12 -11.1 77 77 NNE 6 9 30.40 1029 10 16 0.00 0.00
12:53 pm 12:53 Mostly Cloudy 20 -6.7 13 -10.6 74 74 ENE 7 11 30.35 1028 10 16 0.00 0.00
1:53 pm 13:53 Mostly Cloudy 21 -6.1 14 -10 74 74 ENE 6 9 30.30 1026 10 16 0.00 0.00
2:53 pm 14:53 Mostly Cloudy 23 -5 15 -9.4 72 72 NE 7 11 30.26 1025 10 16 0.00 0.00
3:53 pm 15:53 Partly Cloudy 22 -5.6 16 -8.9 78 78 ENE 8 13 30.23 1024 10 16 0.00 0.00
4:53 pm 16:53 Sunny 22 -5.6 16 -8.9 78 78 ENE 7 11 30.19 1022 10 16 0.00 0.00
5:53 pm 17:53 Cloudy 23 -5 18 -7.8 81 81 ENE 8 13 30.15 1021 10 16 0.00 0.00
6:53 pm 18:53 Cloudy 21 -6.1 17 -8.3 85 85 NE 6 9 30.11 1020 10 16 0.00 0.00
7:53 pm 19:53 Cloudy 21 -6.1 17 -8.3 85 85 N 6 9 30.09 1019 10 16 0.00 0.00
8:53 pm 20:53 Cloudy 21 -6.1 17 -8.3 85 85 WNW 3 6 30.09 1019 10 16 0.00 0.00
9:53 pm 21:53 Clear 18 -7.8 15 -9.4 88 88 N 6 9 30.11 1020 10 16 0.00 0.00
10:53 pm 22:53 Partly Cloudy 18 -7.8 15 -9.4 88 88 W 3 6 30.10 1019 10 16 0.00 0.00
11:53 pm 23:53 Mostly Cloudy 19 -7.2 16 -8.9 88 88 WNW 5 7 30.08 1019 10 16 0.00 0.00

Powered by AerisWeather